Theta_e
313 314 316 317 317 317 317 317 316 314 310 307 307 306 305 303 302 301 301 301 302 303 303 303 304 304 303 300 298 295 294 294 294 294 294 293 293 293 292 292 291 291 291
311 313 315 316 316 317 317 316 315 314 311 308 307 307 307 305 303 302 301 300 301 302 302 303 304 304 302 300 296 293 293 293 293 292 292 291 291 291 291 291 291 291 291
311 312 314 315 316 316 317 316 315 314 312 309 307 307 306 305 302 302 301 301 301 301 302 303 303 303 301 299 294 292 292 292 292 291 290 289 289 289 291 291 291 291 291
311 311 312 313 315 316 316 316 316 315 313 310 308 307 307 306 305 305 303 301 301 301 302 302 303 303 301 297 294 292 292 291 291 290 289 289 287 286 286 289 290 290 290
313 313 312 313 313 315 316 316 316 315 313 311 309 308 307 307 307 305 302 301 301 301 301 302 303 302 300 296 293 291 291 291 290 289 289 288 288 287 285 284 287 287 289
311 313 313 312 313 313 314 315 315 314 313 312 310 308 308 308 307 305 303 302 301 301 301 302 303 302 299 296 292 291 291 290 290 289 288 288 287 286 285 284 285 284 287
312 311 310 311 312 313 313 313 313 314 313 312 310 309 308 308 307 306 304 303 302 301 301 302 303 301 298 294 291 290 290 290 289 289 288 288 287 286 285 284 284 283 285
312 311 311 311 311 312 312 313 312 313 313 311 311 309 309 308 307 306 305 304 303 301 301 302 302 300 296 292 291 290 290 289 289 288 288 288 287 286 285 285 284 283 283
311 311 311 310 311 312 312 312 312 311 312 312 311 310 310 309 308 306 304 303 302 301 301 302 301 298 294 291 290 290 289 289 288 288 288 287 287 286 286 286 285 284 281
310 312 312 311 311 311 311 310 311 311 312 311 311 311 311 310 308 305 304 302 302 302 301 301 300 296 292 290 290 289 289 288 288 288 287 287 286 286 286 285 285 285 284
312 311 309 309 311 311 310 310 309 309 310 310 310 310 311 309 306 305 304 303 302 301 301 301 297 294 290 290 289 289 288 288 287 287 287 287 286 286 286 285 285 285 284
309 309 308 310 310 310 309 309 308 309 310 311 311 310 310 308 306 304 303 302 301 301 301 299 296 291 290 289 289 288 288 287 287 287 286 286 286 286 286 285 285 284 284
309 310 310 310 310 309 308 308 308 307 308 309 309 310 308 307 305 304 302 301 300 300 300 297 293 290 289 289 288 288 287 287 287 286 286 287 286 286 285 285 285 284 285
310 310 309 310 309 308 308 307 307 307 308 308 308 308 307 306 304 303 302 301 300 300 298 294 290 289 289 288 288 287 287 287 287 287 286 286 286 285 285 284 285 285 285
308 309 309 308 308 307 307 307 306 306 306 307 307 307 306 305 303 302 301 300 300 298 295 290 289 288 288 288 287 287 287 287 287 287 286 286 285 284 284 285 285 285 285
307 307 307 307 307 307 307 307 307 306 306 306 306 305 305 304 303 302 300 299 298 295 290 288 288 288 288 287 287 287 287 287 287 286 286 285 285 285 285 284 284 285 285
309 309 306 308 308 308 308 307 307 306 305 306 305 305 304 303 302 301 299 298 294 290 288 288 288 287 287 287 287 287 287 287 286 285 284 285 285 284 284 284 285 285 286
306 308 307 307 307 307 306 306 306 305 305 304 305 304 304 302 300 299 297 293 290 288 287 287 287 287 287 287 287 286 286 286 285 285 285 285 284 284 284 285 286 285 284
303 306 309 308 308 307 307 306 304 305 304 304 304 303 303 302 299 296 293 289 288 287 287 287 286 286 286 286 286 286 286 286 285 285 285 284 284 283 285 285 284 283 283
303 305 307 307 307 307 307 306 305 303 303 303 303 303 302 300 296 292 289 287 286 287 288 286 286 286 286 286 286 285 284 284 285 285 284 284 283 284 284 284 283 282 282
298 301 302 303 304 305 305 304 303 301 302 302 301 300 297 294 292 289 286 286 292 288 286 286 286 286 285 285 285 284 284 284 284 283 283 283 283 283 283 282 282 282 283
296 295 297 299 299 301 302 301 299 300 300 300 298 296 292 289 287 286 286 293 288 286 285 285 285 285 285 284 284 284 284 284 283 283 283 282 282 282 282 282 281 281 281
292 294 295 295 295 297 297 298 298 297 297 296 293 290 287 285 285 289 292 288 285 285 285 285 285 284 284 284 284 284 283 283 283 283 282 282 282 282 282 282 281 281 281
289 290 292 291 289 290 291 294 294 293 293 291 288 286 285 286 290 290 286 285 285 285 284 284 284 284 284 284 283 283 283 283 282 282 282 282 283 282 282 282 282 281 281
287 288 290 290 289 289 290 290 290 289 289 287 285 286 289 289 289 285 284 284 284 284 284 284 284 284 283 283 282 282 282 282 282 282 282 282 282 282 282 281 281 281 281
285 287 286 287 287 287 288 288 287 286 287 288 288 288 288 287 284 284 283 283 283 283 283 283 283 282 282 282 282 282 282 282 282 282 282 281 281 281 281 280 280 281 280
Wind_Speed
41 43 46 49 51 50 49 50 51 50 49 47 46 42 41 38 34 30 27 23 19 16 13 10 10 10 12 13 15 16 16 17 19 20 21 16 15 10 17 17 23 20 28
32 37 46 51 54 54 51 50 52 52 52 51 48 46 45 41 36 32 29 25 22 19 15 13 11 11 12 15 16 16 16 18 19 20 18 11 15 10 30 19 19 29 29
37 39 43 49 54 55 54 53 54 54 53 53 52 50 44 41 38 36 33 29 25 21 17 14 13 12 13 14 15 16 17 17 17 17 11 7 7 29 19 24 20 24 31
43 40 41 46 52 55 55 54 54 54 56 57 56 55 53 51 47 41 36 30 27 23 19 16 14 13 13 14 16 16 17 17 16 16 15 15 16 10 15 22 31 29 32
46 45 47 47 49 53 57 57 56 56 58 60 59 56 53 49 44 40 36 32 28 24 21 18 15 14 14 15 16 16 17 16 15 15 16 18 19 18 17 29 33 39 35
46 49 48 48 48 50 54 57 59 59 60 61 60 57 54 50 47 42 38 34 29 26 22 18 16 15 14 16 16 17 17 16 15 16 17 18 19 21 20 29 38 39 39
40 41 44 45 47 52 54 56 60 61 62 61 61 58 54 49 45 42 39 36 32 28 23 19 17 15 15 16 16 17 17 16 16 17 18 19 20 21 23 27 34 35 46
32 33 38 42 46 50 54 57 60 61 62 61 60 57 53 48 45 41 37 34 29 23 21 20 18 16 16 16 17 17 17 16 17 17 19 20 20 21 22 26 30 40 25
21 23 28 36 41 46 51 55 58 59 60 60 59 57 53 49 45 41 34 30 27 25 23 20 18 17 16 16 17 17 17 17 17 18 20 21 20 22 24 25 27 29 29
22 23 24 30 37 42 46 49 53 57 58 57 57 55 52 47 43 38 34 31 29 26 23 20 19 17 16 16 17 17 17 18 18 19 21 21 21 24 24 26 27 29 31
19 23 26 30 33 38 41 45 49 53 55 54 54 54 50 44 40 37 34 32 29 26 23 20 18 16 16 17 17 16 17 18 19 19 21 22 22 24 24 25 28 30 30
14 19 25 29 32 34 38 43 46 49 50 51 52 50 46 42 40 37 34 32 28 25 22 19 17 16 16 16 16 16 17 18 19 20 21 23 23 24 25 26 29 30 30
13 20 25 28 30 33 37 40 43 45 47 49 49 47 43 42 40 37 34 30 27 24 21 18 17 16 15 15 15 16 16 18 19 20 21 22 24 26 26 27 30 32 34
16 20 23 26 29 32 35 38 40 41 43 44 45 45 44 41 39 36 32 29 26 22 19 17 16 15 14 14 14 15 16 17 18 19 21 22 24 26 27 28 31 34 37
14 20 23 26 29 32 34 35 36 37 38 40 42 44 43 40 38 34 31 27 24 21 19 16 14 13 13 12 13 14 15 17 18 19 21 22 23 24 24 27 30 34 37
10 14 21 25 29 31 33 34 34 35 36 39 43 44 42 39 36 32 30 26 23 20 16 14 13 12 11 12 12 13 15 17 18 21 22 22 23 26 28 26 28 27 32
13 17 21 24 26 29 31 34 34 34 37 40 43 44 41 38 35 32 28 25 21 17 14 12 11 10 9 10 10 11 14 17 18 20 21 23 26 28 30 30 31 34 32
13 18 21 24 25 28 30 31 33 37 40 44 46 44 40 37 34 30 27 23 19 15 12 10 9 8 8 9 9 11 15 16 16 18 20 25 28 30 28 32 35 39 43
13 16 24 24 24 28 29 31 34 36 41 45 46 44 40 37 33 30 25 20 17 13 10 8 7 6 7 9 10 12 14 16 18 19 23 26 28 29 27 32 40 43 44
11 10 19 23 25 28 29 31 35 40 43 45 44 40 36 33 31 27 23 19 15 11 8 8 5 5 6 8 10 11 13 18 20 25 26 26 25 26 30 33 36 42 42
7 5 14 21 25 29 31 34 38 41 42 43 42 39 35 31 28 25 21 18 13 8 9 7 5 4 5 7 9 10 11 15 21 25 27 26 26 29 30 29 32 33 37
5 3 11 17 22 27 30 35 39 41 42 42 41 37 32 30 27 24 21 14 10 10 9 6 4 3 4 6 8 9 9 13 17 22 23 27 29 29 29 29 27 29 31
6 2 5 13 19 25 31 38 38 39 41 40 37 34 31 27 25 19 16 13 12 10 8 5 3 3 1 4 7 11 11 16 18 19 23 26 27 27 29 30 31 31 33
6 6 12 18 21 25 29 32 36 38 39 39 36 32 29 25 20 19 14 13 12 10 7 5 4 1 1 4 9 14 15 17 18 22 24 25 26 27 29 31 34 35 34
3 8 14 19 22 23 24 28 32 36 37 36 35 29 26 22 20 16 14 14 11 8 6 5 3 1 2 8 9 12 15 17 17 21 24 26 29 32 35 36 36 37 36
4 8 13 18 20 21 24 27 30 34 32 29 29 26 24 21 18 18 18 13 9 8 5 4 4 5 6 7 10 13 16 17 19 21 24 27 30 32 35 37 38 38 38
Wind_Direction
240 231 227 223 222 221 218 214 211 210 209 207 206 204 207 207 208 209 213 215 219 228 238 256 279 298 310 319 326 330 332 330 330 335 339 334 329 317 325 330 332 327 332
237 234 227 221 221 221 219 217 215 214 211 211 210 209 207 208 211 211 213 216 221 228 238 254 271 289 305 317 325 328 330 333 337 342 341 336 332 319 325 328 326 328 331
232 226 221 221 221 221 221 219 216 215 213 212 209 209 209 209 207 210 214 215 220 228 237 250 266 284 302 313 321 325 330 331 333 338 345 337 313 319 319 324 325 326 328
244 237 229 223 222 225 223 221 218 216 213 213 211 213 210 207 211 214 213 215 221 227 236 246 261 279 296 310 317 322 322 323 326 330 331 327 314 313 310 315 322 326 326
242 237 233 232 229 223 222 221 219 217 215 214 213 213 212 214 216 213 212 215 220 226 233 243 259 277 293 305 312 316 316 317 320 323 322 321 316 310 303 307 316 319 326
243 242 239 231 226 223 221 219 217 216 215 214 214 215 214 214 214 211 210 215 219 225 231 242 258 273 289 300 308 309 309 312 315 318 317 315 311 310 307 303 314 315 323
241 236 229 223 222 219 218 216 216 215 214 213 215 214 217 218 217 214 213 215 218 223 231 243 256 272 286 296 303 305 306 308 311 313 311 309 309 308 309 307 313 309 317
245 235 230 225 221 219 218 216 215 214 214 212 214 214 217 216 218 217 216 218 223 226 233 244 256 269 281 293 297 299 302 307 307 309 308 307 308 307 308 311 313 312 310
235 231 226 224 221 218 217 216 213 213 213 212 212 212 214 215 216 215 215 217 218 225 234 244 255 267 280 290 293 299 301 303 305 307 306 305 308 306 307 309 307 308 306
237 227 225 221 221 219 214 211 213 212 212 210 211 212 212 213 214 212 211 212 217 224 233 243 255 266 279 288 293 295 299 302 305 306 304 305 307 307 308 308 305 303 299
230 226 217 213 212 209 207 207 207 208 207 208 209 210 210 210 207 208 210 214 218 224 232 242 253 267 279 285 289 294 297 301 304 304 304 307 309 308 309 308 309 309 306
206 198 196 197 198 199 200 202 203 206 207 207 208 208 207 203 203 205 208 212 217 222 231 241 255 267 276 282 288 292 298 302 305 305 306 310 310 309 309 310 310 305 310
163 175 180 186 190 192 195 197 201 203 204 205 205 203 199 199 201 202 204 209 215 222 232 243 255 265 273 280 287 295 300 302 305 309 312 314 312 311 313 310 306 309 310
171 175 178 180 186 189 192 195 198 203 202 203 201 198 195 196 199 200 204 209 214 222 232 243 253 263 273 281 290 296 299 302 306 311 315 315 314 313 312 314 311 309 310
177 179 180 181 184 186 190 194 197 197 200 199 195 192 191 193 196 198 203 207 213 221 231 240 253 263 272 281 290 296 299 304 312 315 316 317 315 316 310 302 305 307 307
193 186 189 189 188 190 190 191 194 195 195 194 190 187 189 191 194 198 202 206 212 220 229 239 250 262 273 283 294 302 305 311 315 317 319 317 315 315 315 308 309 308 307
230 215 205 203 197 194 194 191 190 190 189 189 186 187 189 191 194 198 201 206 209 217 226 236 249 261 274 288 299 302 307 314 319 320 321 319 319 319 316 324 325 320 316
287 242 217 209 202 195 192 191 188 187 187 185 184 186 189 191 193 197 200 202 205 212 221 232 249 262 279 292 304 312 315 319 321 322 320 320 322 327 326 321 317 309 307
310 259 236 221 201 194 191 187 185 187 186 184 185 186 189 190 193 194 194 195 201 202 210 241 246 260 284 302 314 318 316 321 323 325 326 327 328 325 322 318 315 315 315
342 253 224 213 205 193 190 189 189 187 186 186 186 187 190 192 190 190 189 189 187 193 221 227 240 266 293 309 319 323 325 322 333 327 328 332 329 327 325 321 319 315 323
356 232 207 202 195 190 188 187 188 187 187 186 186 186 186 185 185 183 181 178 195 191 208 216 233 271 298 315 318 330 319 334 323 323 328 334 334 326 325 324 320 322 317
355 181 194 190 187 187 187 186 186 187 186 185 183 180 179 179 178 177 173 190 176 194 195 200 224 271 309 322 325 331 336 325 322 329 335 337 335 333 333 331 328 323 322
30 83 174 176 178 184 189 186 186 185 183 180 175 174 173 172 169 174 189 167 183 186 186 196 214 227 310 329 333 341 342 335 335 339 339 339 339 340 342 343 341 341 340
67 121 154 162 165 179 186 191 182 181 178 173 169 167 165 162 180 181 160 177 177 179 184 185 196 191 339 332 348 354 348 343 349 340 344 341 341 345 348 348 350 350 347
105 151 159 168 171 179 182 183 178 175 171 167 159 163 174 178 168 156 169 169 168 173 177 176 166 122 61 11 2 353 346 348 353 341 342 344 352 352 353 353 353 351 350
133 145 156 165 167 174 175 174 171 171 170 166 166 167 165 158 156 166 160 157 161 159 147 131 86 71 29 15 11 5 4 359 354 352 349 356 356 356 354 353 352 352 350